Вернуться в каталог

CZ-6A DEB

АктивенSSO
NORAD 56616·DEBRIS·🇨🇳 China

Запущен Nov 11, 2022 с Taiyuan Satellite Launch Center

Loading…

Ближайшие Пролёты (ближайшие 24 часа)

TLE

СвежийSource: Space-Track

Эпоха: Sep 13, 2026, 05:23 UTC

1 56616U 22151AEQ 26256.22443480  .00000170  00000-0  11429-3 0  9991
2 56616  98.8245 258.8126 0033259  55.4884 304.9421 14.12956502174909

Отслеживайте CZ-6A DEB в реальном времени с AllMySat

Download on the App Store